Wind_Speed
31 31 31 32 33 33 34 34 34 34 35 36 36 37 37 37 38 39 40 40 40 40 41 42 42 42 43 43 44 45 46 46 46 47 47 46 47 48 48 47 47 47 47 47
32 32 32 32 33 33 33 34 34 34 35 36 36 37 37 37 37 38 39 39 40 40 41 41 42 42 43 43 44 45 46 46 46 47 47 47 47 48 49 49 48 48 49 48
33 33 33 33 33 33 34 35 35 36 35 37 38 37 36 37 37 38 39 40 40 40 41 41 42 42 43 42 44 45 45 45 46 47 47 48 48 48 49 49 49 49 49 49
34 33 33 34 34 34 35 35 36 37 37 37 38 39 35 36 37 37 39 40 39 39 40 40 41 41 42 42 44 44 45 45 45 46 47 47 48 48 48 49 49 50 50 49
34 34 34 34 34 35 36 36 37 37 38 38 37 39 37 37 37 38 39 40 40 39 40 40 40 40 41 42 44 44 45 45 45 46 47 48 48 48 49 49 49 50 50 50
35 35 35 35 34 35 36 37 38 39 39 39 37 38 38 37 37 38 39 40 40 39 40 40 40 40 41 42 44 45 45 46 45 46 47 47 48 48 48 49 50 50 50 51
36 35 36 36 36 36 37 37 38 40 40 39 37 38 38 37 37 38 38 39 40 40 40 39 39 40 40 41 42 44 46 46 46 46 46 47 48 48 48 48 49 50 51 51
37 36 36 36 36 37 37 37 37 39 40 39 37 37 37 37 37 37 38 38 40 40 40 39 39 39 40 41 42 43 45 45 46 46 46 46 47 49 49 49 49 50 50 50
38 37 36 36 36 36 37 37 37 38 40 40 39 39 38 37 36 37 38 39 39 40 39 39 38 38 39 40 40 42 44 45 45 46 47 47 47 48 48 49 50 50 50 50
38 38 37 37 37 36 36 37 37 38 39 41 41 40 40 38 37 37 38 39 39 39 39 39 38 38 37 38 40 41 43 44 44 44 45 47 47 47 48 49 50 51 51 51
38 38 37 37 37 37 36 37 37 39 39 40 41 39 40 39 38 39 39 39 39 39 39 39 39 38 37 37 38 40 42 43 44 45 45 46 47 48 49 49 50 51 52 52
37 38 38 37 36 37 37 37 37 38 38 39 41 40 39 39 38 39 40 40 40 39 39 39 39 38 38 37 38 39 40 42 44 44 45 45 46 47 48 48 49 51 52 52
37 38 38 37 36 36 36 36 36 37 38 38 39 39 38 39 40 39 40 40 40 40 39 39 39 38 38 37 38 39 40 40 41 43 43 44 46 47 48 49 49 50 51 52
38 38 38 38 37 37 36 36 37 37 38 38 38 38 38 40 41 40 39 40 40 40 40 40 40 39 39 38 38 39 40 41 41 42 43 44 45 46 47 49 49 50 51 51
38 38 38 37 37 37 37 37 37 38 38 39 38 38 38 40 41 40 39 39 40 40 40 40 39 40 39 39 39 39 40 41 41 41 41 42 44 45 46 47 48 49 50 51
37 38 38 37 37 37 37 37 37 38 38 39 39 39 39 40 40 40 39 39 39 40 40 40 40 40 39 39 39 40 40 41 41 41 41 41 42 43 44 45 47 47 48 49
37 37 38 37 36 37 36 36 36 37 37 39 40 39 39 39 39 40 40 40 39 40 40 40 40 40 40 40 40 40 41 40 40 41 40 40 40 41 41 43 45 46 47 47
37 37 38 38 37 37 36 35 36 37 37 38 39 39 39 39 39 39 40 40 40 39 39 39 39 39 40 40 40 40 40 40 40 40 39 39 39 40 40 40 42 45 45 45
35 36 37 38 39 39 36 36 37 38 37 38 39 39 39 40 39 39 39 40 39 39 38 38 38 39 39 39 39 38 38 38 37 37 38 38 38 39 39 39 40 42 44 44
34 34 35 37 38 39 37 38 38 39 39 39 39 39 39 40 40 39 39 39 38 38 38 38 38 38 38 38 37 36 35 35 35 35 36 36 37 37 37 38 39 41 42 43
33 33 34 35 37 37 37 38 38 39 39 39 38 39 39 39 40 39 38 38 38 38 37 37 37 36 36 36 35 33 33 33 33 33 34 34 34 34 35 36 37 38 39 40
33 33 34 34 35 36 36 37 38 38 38 38 39 38 38 38 38 37 38 38 38 37 36 36 35 34 34 34 33 32 32 31 31 31 32 32 32 33 34 35 36 37 37 39
33 33 33 34 35 36 36 36 36 37 37 38 38 38 38 38 37 36 36 37 37 36 36 35 34 33 32 32 32 31 31 31 30 30 30 30 30 31 33 33 34 35 36 37
33 33 33 34 33 34 35 35 36 36 37 37 37 36 37 36 36 35 35 35 35 34 34 34 32 31 30 30 30 30 30 30 29 28 28 29 29 29 31 31 32 33 34 36
33 34 34 34 33 34 34 35 35 35 36 36 36 36 35 34 34 34 34 34 34 33 33 32 31 30 29 29 29 29 29 28 28 28 29 29 28 28 29 30 31 32 33 35
32 33 33 33 33 34 34 34 35 35 35 35 35 35 34 33 33 32 32 32 32 31 31 31 30 29 28 28 28 28 27 26 26 27 28 28 28 29 29 30 30 32 33 34
Wind_Direction
294 293 292 292 291 291 291 291 291 291 291 289 286 284 282 281 280 280 280 279 279 279 276 272 269 266 263 261 260 259 258 258 258 257 256 256 255 255 255 255 254 254 253 252
294 293 293 293 292 292 292 292 291 291 292 291 288 286 284 282 281 281 281 281 280 280 278 273 269 266 264 262 260 259 259 258 258 258 257 256 256 256 255 255 254 254 253 252
296 296 294 293 292 292 292 292 291 291 291 290 289 288 287 284 284 283 282 283 282 281 279 275 269 266 264 262 261 259 259 259 260 259 259 258 257 255 255 255 255 254 253 251
295 295 294 292 292 293 292 292 291 292 293 292 292 291 290 288 285 284 284 285 285 283 280 276 270 267 265 263 261 259 259 259 260 260 259 259 258 256 255 255 255 254 252 250
295 295 294 293 293 293 293 292 291 292 293 292 293 293 292 291 289 287 285 285 285 283 281 278 272 269 267 266 264 261 260 260 261 260 259 259 259 257 255 255 254 253 252 251
294 294 293 294 294 293 293 292 291 292 293 293 295 295 294 293 292 290 288 287 286 284 283 280 275 271 268 267 265 262 261 261 261 260 260 259 258 257 256 255 253 252 252 251
293 293 293 293 293 293 293 293 293 293 294 295 296 295 296 295 293 292 290 288 286 285 285 282 277 273 270 268 267 264 263 263 262 261 261 259 258 256 256 255 253 252 251 251
295 294 293 293 293 293 293 294 294 294 295 295 295 295 297 296 294 294 293 291 289 288 287 284 280 276 272 269 268 266 264 264 263 262 261 260 258 257 255 254 252 251 250 250
295 294 293 293 293 293 293 293 294 294 293 293 294 296 297 296 295 294 293 293 291 289 288 285 282 278 275 270 268 267 265 264 263 263 262 260 259 256 254 252 250 250 250 249
295 293 293 293 292 292 293 293 294 294 294 294 293 296 297 298 297 296 293 291 292 290 289 287 284 280 277 271 268 267 265 264 264 264 263 262 260 257 254 252 250 249 249 248
295 294 293 293 293 293 293 292 292 292 292 292 293 295 296 298 297 295 295 293 292 290 288 288 285 283 278 274 270 269 268 266 265 266 266 264 262 259 256 253 251 249 249 249
295 294 294 294 294 294 293 293 292 292 291 291 292 293 295 297 297 296 295 295 292 290 288 288 286 283 280 275 272 271 269 268 267 267 267 265 262 260 257 255 252 250 248 248
296 295 296 296 295 295 295 295 293 292 291 290 291 293 294 295 295 295 295 295 293 291 288 287 286 284 281 278 274 272 271 269 268 267 266 265 263 260 258 256 252 250 249 249
295 295 296 296 296 296 295 295 294 293 292 291 291 292 293 294 294 295 295 294 293 291 289 287 285 284 282 280 278 275 273 271 270 268 267 265 264 261 258 256 253 251 249 249
296 295 295 294 294 294 294 294 293 292 293 293 293 291 292 293 294 294 295 294 293 292 291 288 286 284 283 281 279 277 274 273 271 270 268 266 264 261 259 257 253 251 250 249
296 295 295 293 293 293 293 295 294 294 294 294 293 292 292 293 294 294 293 292 292 291 290 288 286 284 282 281 280 278 276 274 273 272 270 268 265 261 259 257 254 252 251 251
297 297 297 296 294 294 295 297 296 295 295 296 295 294 293 293 293 293 292 292 292 292 291 289 287 285 284 283 282 281 278 276 275 274 272 270 267 264 261 257 254 253 252 251
298 297 298 298 296 295 299 298 297 296 297 297 296 295 293 294 294 293 293 293 293 293 293 291 288 286 285 285 284 284 282 279 276 275 273 270 268 266 263 259 255 254 252 251
299 298 299 299 298 298 299 299 299 299 298 298 297 297 296 295 294 293 293 293 293 293 294 293 291 289 287 286 285 284 282 279 277 275 273 271 268 265 263 260 256 255 252 251
301 299 299 300 299 301 302 299 299 299 298 300 300 299 298 297 295 294 293 293 294 294 294 294 292 290 288 286 286 285 282 279 278 276 274 272 270 267 264 260 257 256 254 251
301 300 299 299 299 301 303 300 300 298 300 301 300 299 299 299 297 296 295 294 295 296 296 295 293 291 288 286 285 284 282 279 278 277 275 272 270 267 264 260 258 257 254 252
303 302 302 301 301 302 303 301 300 299 299 298 299 298 299 298 298 297 295 295 296 297 297 296 295 292 289 286 284 284 281 280 279 278 276 273 270 267 263 260 259 257 256 253
303 304 303 302 301 301 302 301 301 300 299 299 299 299 298 298 296 295 295 296 296 296 297 296 295 292 290 287 285 284 282 280 279 278 277 274 271 268 265 262 259 257 256 256
305 304 304 304 303 302 301 301 300 301 301 301 301 301 301 300 297 295 295 297 296 296 296 296 295 293 290 288 286 285 283 280 279 278 278 275 273 270 267 264 261 258 256 256
304 304 305 305 304 303 303 304 304 303 302 301 301 302 303 303 300 298 298 297 296 296 296 295 294 293 291 288 287 285 283 281 280 279 278 275 273 271 268 266 262 259 259 259
303 304 305 304 304 304 305 305 305 304 304 304 304 303 303 303 303 302 301 301 299 298 297 295 294 293 291 289 287 285 283 282 280 279 279 276 274 272 268 266 266 264 262 261
Height
5717 5716 5713 5710 5707 5705 5702 5699 5697 5696 5693 5690 5688 5687 5686 5685 5683 5682 5680 5678 5677 5675 5674 5673 5673 5673 5674 5676 5677 5678 5680 5681 5683 5684 5686 5688 5690 5691 5693 5695 5697 5699 5701 5703
5710 5707 5705 5701 5699 5696 5694 5691 5689 5687 5684 5681 5679 5677 5676 5675 5673 5671 5669 5667 5666 5664 5662 5661 5661 5661 5662 5663 5664 5666 5667 5668 5670 5671 5673 5675 5677 5679 5681 5682 5684 5686 5688 5690
5701 5699 5696 5693 5690 5688 5685 5683 5680 5678 5675 5672 5670 5669 5668 5665 5663 5661 5658 5656 5655 5653 5651 5649 5649 5649 5650 5651 5652 5653 5654 5656 5657 5658 5660 5662 5664 5666 5668 5669 5671 5673 5675 5677
5692 5690 5688 5685 5682 5679 5677 5674 5671 5668 5666 5663 5661 5657 5659 5656 5653 5651 5648 5645 5643 5642 5640 5638 5637 5637 5638 5639 5640 5641 5642 5643 5644 5645 5647 5649 5650 5652 5654 5656 5658 5660 5662 5664
5684 5682 5679 5677 5674 5670 5668 5665 5662 5659 5656 5654 5652 5647 5648 5645 5642 5640 5637 5634 5632 5630 5629 5627 5626 5626 5627 5628 5628 5629 5630 5630 5631 5632 5634 5636 5637 5639 5641 5643 5645 5647 5649 5652
5676 5673 5670 5668 5665 5662 5659 5656 5653 5649 5646 5644 5643 5638 5637 5634 5631 5629 5627 5624 5622 5620 5618 5616 5615 5615 5615 5615 5616 5616 5617 5617 5618 5619 5621 5622 5624 5626 5628 5630 5632 5635 5637 5640
5667 5665 5661 5659 5656 5653 5650 5647 5643 5639 5636 5634 5633 5628 5627 5625 5621 5619 5617 5614 5611 5609 5607 5605 5604 5603 5603 5603 5603 5604 5604 5605 5605 5606 5607 5608 5610 5612 5615 5617 5619 5622 5625 5627
5656 5655 5652 5649 5646 5643 5640 5637 5634 5630 5627 5624 5622 5619 5618 5616 5612 5609 5606 5604 5601 5598 5596 5594 5593 5591 5591 5591 5591 5591 5591 5592 5592 5593 5594 5595 5596 5598 5601 5603 5606 5608 5611 5615
5646 5645 5642 5639 5636 5634 5631 5628 5625 5621 5617 5614 5612 5610 5608 5606 5603 5599 5596 5593 5590 5588 5585 5583 5581 5580 5579 5580 5579 5579 5579 5579 5580 5580 5580 5581 5582 5584 5587 5589 5592 5595 5598 5601
5637 5635 5633 5630 5627 5624 5622 5618 5615 5611 5607 5604 5603 5601 5598 5595 5593 5590 5586 5583 5580 5578 5575 5573 5571 5569 5568 5568 5567 5567 5567 5567 5567 5567 5567 5568 5569 5570 5573 5575 5579 5582 5585 5588
5627 5625 5623 5620 5617 5615 5612 5610 5605 5602 5599 5595 5592 5594 5588 5586 5583 5580 5576 5573 5570 5568 5565 5562 5560 5558 5557 5556 5555 5555 5555 5555 5554 5554 5554 5554 5555 5557 5559 5561 5564 5568 5571 5574
5618 5614 5612 5611 5608 5604 5602 5599 5596 5593 5590 5586 5582 5585 5580 5576 5573 5569 5566 5563 5560 5557 5554 5551 5549 5547 5546 5545 5544 5543 5543 5542 5542 5542 5542 5541 5542 5543 5545 5547 5550 5554 5557 5561
5609 5605 5602 5600 5600 5596 5592 5589 5586 5583 5580 5576 5573 5574 5570 5566 5562 5559 5556 5552 5549 5546 5543 5541 5538 5536 5535 5533 5532 5531 5530 5530 5529 5529 5529 5529 5529 5530 5531 5534 5537 5540 5543 5547
5599 5597 5595 5592 5588 5585 5582 5580 5576 5572 5569 5567 5565 5563 5561 5555 5551 5549 5545 5542 5538 5536 5533 5530 5528 5525 5523 5522 5520 5519 5518 5517 5516 5516 5516 5516 5516 5516 5518 5520 5523 5526 5530 5533
5590 5588 5585 5582 5579 5575 5573 5570 5566 5563 5560 5557 5556 5553 5550 5546 5542 5539 5535 5531 5528 5525 5522 5519 5517 5514 5512 5510 5508 5507 5506 5505 5504 5503 5503 5502 5502 5503 5504 5506 5509 5512 5516 5519
5580 5577 5575 5573 5570 5566 5563 5561 5557 5554 5550 5547 5544 5543 5540 5536 5532 5528 5524 5521 5517 5514 5511 5508 5505 5503 5501 5499 5497 5495 5493 5492 5491 5490 5489 5489 5489 5490 5491 5493 5495 5498 5501 5505
5571 5567 5564 5562 5559 5556 5554 5553 5549 5545 5541 5537 5534 5533 5528 5525 5521 5517 5513 5510 5506 5503 5500 5497 5494 5491 5489 5486 5484 5483 5481 5479 5478 5477 5476 5475 5475 5476 5477 5479 5481 5484 5487 5491
5562 5558 5554 5551 5549 5546 5548 5543 5539 5535 5532 5528 5524 5521 5517 5514 5510 5506 5502 5499 5495 5492 5489 5486 5483 5480 5477 5475 5472 5470 5468 5466 5465 5463 5462 5462 5462 5463 5464 5465 5468 5470 5474 5478
5554 5549 5545 5541 5538 5536 5537 5533 5528 5525 5523 5518 5514 5510 5506 5503 5500 5497 5492 5488 5484 5481 5478 5474 5471 5469 5466 5463 5461 5459 5456 5454 5453 5451 5450 5450 5450 5450 5451 5453 5455 5458 5461 5465
5545 5541 5538 5533 5529 5526 5528 5523 5518 5515 5512 5509 5504 5500 5496 5492 5489 5487 5482 5478 5474 5471 5467 5464 5461 5458 5455 5452 5450 5448 5445 5444 5442 5441 5440 5439 5439 5439 5440 5442 5444 5446 5449 5452
5537 5533 5530 5525 5520 5518 5517 5512 5508 5506 5503 5498 5493 5489 5485 5481 5478 5474 5470 5467 5464 5460 5457 5453 5450 5447 5444 5441 5439 5437 5436 5434 5433 5431 5431 5430 5429 5429 5430 5432 5434 5435 5438 5440
5529 5525 5522 5517 5513 5513 5508 5503 5500 5496 5491 5487 5483 5479 5475 5471 5467 5463 5459 5456 5453 5450 5447 5443 5440 5437 5434 5431 5430 5428 5426 5425 5424 5423 5422 5421 5421 5421 5422 5423 5424 5426 5427 5429
5522 5519 5514 5511 5509 5503 5498 5494 5490 5485 5482 5477 5473 5469 5465 5461 5457 5453 5450 5446 5443 5440 5437 5434 5430 5427 5425 5422 5420 5419 5418 5416 5415 5414 5413 5413 5412 5412 5412 5413 5415 5416 5417 5419
5514 5511 5506 5502 5499 5495 5490 5485 5481 5477 5472 5468 5464 5459 5455 5451 5448 5444 5441 5437 5434 5431 5428 5425 5421 5419 5416 5414 5412 5410 5409 5407 5406 5406 5405 5404 5404 5403 5403 5404 5405 5406 5407 5409
5506 5502 5498 5495 5491 5487 5483 5478 5473 5468 5464 5459 5455 5451 5446 5442 5438 5434 5431 5428 5425 5422 5419 5416 5413 5410 5408 5406 5404 5402 5400 5399 5398 5398 5397 5396 5395 5395 5395 5395 5395 5396 5398 5398
5499 5495 5490 5487 5483 5478 5475 5470 5465 5460 5456 5451 5447 5443 5438 5434 5430 5426 5423 5419 5416 5413 5410 5407 5404 5402 5400 5398 5396 5394 5392 5391 5390 5390 5389 5388 5387 5386 5386 5387 5387 5387 5388 5389